#timestamp,LO_Frequency,Hit,StdDev 
1542430815.8,286047000.4,N
1542430835.6,286047000.3,N
1542430855.4,286047002.8,N
1542430875.3,286047002.4,N
1542430895.1,286047002.7,N
1542430915.9,286047002.8,N
1542430935.7,286046999.7,N
1542430955.5,286046999.9,N
1542430975.4,286047000.1,N
1542430995.2,286047000.2,N
1542431015.1,286047000.5,N
1542431016.0,286047000.5,N
1542431035.8,286047000.3,N
1542431055.6,286047000.6,N
1542431075.5,286047002.3,N
1542431095.3,286047002.4,N
1542431115.1,286047002.8,N
1542431135.9,286047002.4,N
1542431155.7,286047002.5,N
1542431175.6,286047002.3,N
1542431195.4,286047002.8,N
1542431215.2,286047000.3,N
1542431235.1,286047000.1,N
1542431236.0,286047000.1,N
1542431255.8,286047002.4,N
1542431275.7,286047002.7,N
1542431295.5,286047002.7,N
1542431315.3,286046999.9,N
1542431335.2,286047000.7,N
1542431355.1,286046999.9,N
1542431375.9,286047000.5,N
1542431395.7,286047000.7,N
1542431415.6,286047000.2,N
1542431435.4,286047001.9,N
1542431455.2,286047002.1,N
1542431475.1,286047002.2,N
1542431476.0,286047002.2,N
1542431495.8,286047002.3,N
1542431515.7,286047000.3,N
1542431535.5,286047000.0,N
1542431555.3,286046999.7,N
1542431575.2,286047002.7,N
1542431595.0,286047002.7,N
1542431595.9,286047002.7,N
1542431615.8,286047002.0,N
1542431635.6,286047002.5,N
1542431655.4,286047002.0,N
1542431675.3,286047004.0,Y
1542431695.1,286046999.8,P
1542431715.8,286046998.2,N
1542431735.7,286047001.0,N
1542431755.5,286047002.7,N
1542431775.4,286047000.2,N
1542431795.2,286047000.6,N
1542431815.0,286047000.0,N
1542431815.9,286047000.0,N
1542431835.8,286046999.8,N
1542431855.7,286047002.1,N
1542431875.5,286047002.5,N
1542431895.4,286046999.8,N
1542431915.2,286047001.0,N
1542431935.0,286046998.1,N
1542431936.0,286046998.1,N
1542431955.8,286047000.9,N
1542431975.6,286047000.2,N
1542431995.5,286047001.1,N
1542432015.3,286046998.2,N
1542432035.1,286046998.9,N
1542432055.9,286046998.2,N
1542432075.7,286046998.5,N
1542432095.6,286047000.5,N
1542432115.4,286047000.0,N
1542432135.2,286047000.2,N
1542432155.1,286046998.1,N
1542432156.0,286046998.1,N
1542432175.8,286046999.3,N
1542432195.6,286046999.4,N
1542432215.5,286046999.4,N
1542432235.3,286046999.3,N
1542432255.2,286046998.4,N
1542432275.9,286046999.6,N
1542432295.7,286046999.4,N
1542432315.6,286046998.9,N
1542432335.4,286046998.5,N
1542432355.3,286046998.9,N
1542432375.1,286046999.2,N
1542432376.0,286046999.2,N
1542432395.8,286046997.7,N
1542432415.7,286046997.2,N
1542432435.5,286046995.0,Y
1542432455.3,286046997.5,P
1542432475.2,286046997.2,P
1542432495.0,286046996.6,P
1542432495.9,286046996.6,Y
1542432515.8,286047000.9,P
1542432535.6,286046998.3,N
1542432555.4,286046998.9,N
1542432575.3,286046998.9,N
1542432595.1,286046999.2,N
1542432615.9,286046999.3,N
1542432635.4,286046999.2,N
1542432655.3,286046997.0,Y
1542432675.1,286046998.7,P
1542432695.9,286046999.4,P
1542432715.7,286046998.7,P
1542432735.5,286046999.5,N
1542432755.4,286046998.6,Y
1542432775.2,286047000.1,P
1542432795.1,286047000.4,N
1542432796.0,286047000.4,N
1542432815.8,286046999.9,N
1542432835.6,286047000.1,N
1542432855.5,286047000.7,N
1542432875.3,286047002.5,Y
1542432895.1,286046999.8,P
1542432915.9,286046998.1,P
1542432935.7,286047000.7,N
1542432955.6,286046999.7,N
1542432975.4,286046999.8,N
1542432995.2,286046998.2,N
1542433015.1,286046998.5,N
1542433016.0,286046998.5,N
1542433035.8,286046998.3,N
1542433055.6,286046998.8,N
1542433075.5,286047001.2,N
1542433095.3,286047001.2,N
1542433115.2,286047001.0,N
1542433135.9,286046999.9,N
1542433155.7,286047000.8,N
1542433175.6,286047000.7,N
1542433195.4,286046998.2,N
1542433215.2,286046998.2,N
1542433235.1,286047001.1,N
1542433236.0,286047001.1,N
1542433255.8,286046998.2,N
1542433275.7,286047000.8,N
1542433295.5,286046998.4,N
1542433315.3,286046998.3,N
1542433335.2,286047001.1,N
1542433355.0,286047000.6,N
1542433355.9,286047000.6,N
1542433375.8,286046998.5,N
1542433395.6,286046998.2,N
1542433415.4,286046999.1,N
1542433435.3,286046999.0,N
1542433455.1,286046999.3,N
1542433475.9,286046997.1,N
1542433495.7,286046997.4,N
1542433515.5,286046997.4,N
1542433535.4,286046998.0,N
1542433555.2,286046997.6,N
1542433575.1,286046994.9,Y
1542433576.0,286046994.9,P
1542433595.8,286046999.2,N
1542433615.6,286047000.8,N
1542433635.5,286046998.2,N
1542433655.3,286046997.0,N
1542433675.2,286046996.7,N
1542433695.9,286046997.6,N
1542433715.7,286046995.5,N
1542433735.6,286046996.0,N
1542433755.4,286046995.5,N
1542433775.2,286046995.4,N
1542433795.1,286046997.5,N
1542433796.0,286046997.5,N
1542433815.8,286046997.6,N
1542433835.7,286046995.3,N
1542433855.5,286046995.7,N
1542433875.3,286046995.9,N
1542433895.2,286046996.0,N
1542433915.9,286046994.0,Y
1542433935.7,286046996.7,P
1542433955.6,286046996.7,P
1542433975.4,286046997.8,P
1542433995.3,286046997.1,Y
1542434015.2,286047000.9,P
1542434035.0,286046998.2,N
1542434035.9,286046998.2,N
1542434055.7,286046998.1,N
1542434075.6,286046998.1,N
1542434095.7,286046998.3,N
1542434115.5,286046998.7,N
1542434135.3,286046998.5,N
1542434155.2,286047001.2,N
1542434175.9,286047000.1,N
1542434195.7,286047000.1,N
1542434215.6,286047000.1,N
1542434235.4,286047000.8,N
1542434255.2,286046998.9,N
1542434275.1,286047000.8,N
1542434276.0,286047000.8,N
1542434295.8,286046998.3,N
1542434315.7,286047002.8,N
1542434335.5,286047002.3,N
1542434355.3,286047000.3,N
1542434375.5,286046999.9,N
1542434395.3,286046998.1,N
